Location: Quedlinburg
(51.7921°N, 11.1414°E)
Time: 14:03:10
(UTC+02:00)

RS-15 - Pass Details

Date: 14 March 2026
Orbit: 1893 x 2152 km, 64.8° (Epoch: 22 April)

Event Time Altitude Azimuth Distance (km) Brightness Sun altitude
Rises 00:05:39 0° 268° (W) 5,286 10.4 -40.7°
Reaches altitude 10° 00:09:08 10° 275° (W) 4,305 9.9 -40.7°
Maximum altitude 00:19:37 46° 346° (NNW) 2,494 8.7 -40.8°
Drops below altitude 10° 00:30:33 10° 58° (ENE) 4,481 10.2 -40.8°
Sets 00:34:17 0° 65° (ENE) 5,518 10.7 -40.8°
